📊 Raw Sensor Data

Showing records 35251 to 35275 of 84,874 total

ID Distance (ft) Battery V Battery A Int Temp (°F) Int Humid (%) Ext Temp (°F) Solar V RSSI SNR Time Stamp
49636 15.1 3.82 0 81 42 79 5.10 -69 8 08/19/2025 11:15 AM
49635 15.1 4.00 0 80 42 77 5.10 -70 8 08/19/2025 11:00 AM
49634 15.1 3.82 0 79 42 77 5.10 -69 8 08/19/2025 10:45 AM
49633 15.1 3.82 0 77 42 75 5.10 -68 7 08/19/2025 10:30 AM
49632 15.2 4.07 0 76 42 75 5.10 -70 8 08/19/2025 10:15 AM
49631 15.2 3.83 0 75 42 75 5.10 -70 7 08/19/2025 10:00 AM
49630 15.2 3.87 0 74 42 75 5.10 -71 7 08/19/2025 09:45 AM
49629 15.2 3.82 0 73 42 77 5.10 -70 8 08/19/2025 09:30 AM
49628 15.3 3.82 0 72 42 76 5.10 -68 8 08/19/2025 09:15 AM
49627 15.2 3.88 0 70 42 70 5.10 -69 8 08/19/2025 09:00 AM
49626 15.3 3.96 0 69 42 71 5.10 -70 8 08/19/2025 08:45 AM
49625 15.3 3.83 0 68 42 74 5.10 -69 8 08/19/2025 08:30 AM
49624 15.3 3.82 0 66 42 71 5.10 -69 8 08/19/2025 08:15 AM
49623 15.2 3.97 35 62 42 71 4.50 -69 8 08/19/2025 07:45 AM
49622 15.2 3.85 26 60 42 71 4.50 -69 8 08/19/2025 07:30 AM
49621 15.1 3.87 5 57 42 68 4.50 -70 8 08/19/2025 07:15 AM
49620 15.1 3.72 0 54 43 64 4.50 -70 8 08/19/2025 07:00 AM
49619 15.0 3.82 -26 53 43 58 4.50 -69 8 08/19/2025 06:45 AM
49618 15.0 3.67 -10 52 44 53 4.10 -70 9 08/19/2025 06:30 AM
49617 15.0 3.69 -5 52 44 53 1.00 -69 8 08/19/2025 06:15 AM
49616 15.0 3.82 -5 52 44 54 0.00 -69 8 08/19/2025 06:00 AM
49615 15.0 3.70 -5 52 44 54 0.00 -69 8 08/19/2025 05:45 AM
49614 15.0 3.70 -5 53 44 55 0.00 -70 9 08/19/2025 05:30 AM
49613 15.0 3.70 -5 53 43 55 0.00 -70 9 08/19/2025 05:15 AM
49612 15.0 3.82 -5 53 43 56 0.00 -70 8 08/19/2025 05:00 AM